Flight Track Log - Related Links

Times and Time Zones

All times are in EST time to prevent confusion due to time zone crossing. See the N225SB flight status page for this flight to view local times or setup timezone preferences in your user account.

Time Position Orientation Groundspeed Altitude Reporting Facility
EST Latitude Longitude Course Direction KTS MPH feet Rate Location/Type
Tue 09:07:25 AM 44.5036 -73.2042 251° West 174 200 3,900  Level Boston Center
Tue 09:08:27 AM 44.4847 -73.2819 251° West 223 257 7,900 3,669 Climbing Boston Center
Tue 09:09:26 AM 44.4519 -73.3664 241° Southwest 249 287 11,300 3,550 Climbing Boston Center
Tue 09:10:27 AM 44.4053 -73.4769 239° Southwest 306 352 15,000 3,393 Climbing Boston Center
Tue 09:11:28 AM 44.3583 -73.5867 239° Southwest 328 377 18,200 2,951 Climbing Boston Center
Tue 09:12:29 AM 44.3181 -73.6792 239° Southwest 327 376 21,000 1,854 Climbing Boston Center
Tue 09:13:31 AM 44.2619 -73.8047 238° Southwest 321 369 22,000 492 Climbing Boston Center
Tue 09:14:31 AM 44.2133 -73.9153 239° Southwest 329 379 22,000  Level Boston Center
Tue 09:15:33 AM 44.1658 -74.0244 239° Southwest 331 381 22,000  Level Boston Center
Tue 09:16:34 AM 44.1164 -74.1336 238° Southwest 332 382 22,000  Level Boston Center
Tue 09:17:35 AM 44.0683 -74.2425 238° Southwest 332 382 22,000  Level Boston Center
Tue 09:18:36 AM 44.0192 -74.3539 238° Southwest 337 388 22,000  Level Boston Center
Tue 09:19:36 AM 43.9703 -74.4619 238° Southwest 333 383 22,000  Level Boston Center
Tue 09:20:35 AM 43.9244 -74.5725 240° Southwest 331 381 22,000  Level Boston Center
Tue 09:21:36 AM 43.8967 -74.6953 253° West 332 382 22,000  Level Boston Center
Tue 09:22:39 AM 43.8661 -74.8197 251° West 340 391 22,000  Level Boston Center
Tue 09:23:39 AM 43.8358 -74.9425 251° West 339 390 22,000  Level Boston Center
Tue 09:24:40 AM 43.8058 -75.0650 251° West 338 389 22,000  Level Boston Center
Tue 09:25:41 AM 43.7694 -75.2094 251° West 335 386 22,000  Level Boston Center
Tue 09:26:42 AM 43.7386 -75.3317 251° West 337 388 22,000  Level Boston Center
Tue 09:27:43 AM 43.7072 -75.4558 251° West 344 396 22,000  Level Boston Center
Tue 09:28:44 AM 43.6753 -75.5808 251° West 348 400 22,000  Level Boston Center
Tue 09:29:44 AM 43.6433 -75.7031 250° West 343 395 22,000  Level Boston Center
Tue 09:30:45 AM 43.6117 -75.8264 251° West 344 396 22,000  Level Boston Center
Tue 09:31:47 AM 43.5800 -75.9492 250° West 342 394 22,000  Level Boston Center
Tue 09:32:47 AM 43.5478 -76.0733 250° West 346 398 22,000  Level Boston Center
Tue 09:33:47 AM 43.5142 -76.2003 250° West 352 405 22,000  Level Boston Center
Tue 09:34:48 AM 43.4817 -76.3261 250° West 351 404 22,000 -347 Level Boston Center
Tue 09:35:48 AM 43.4425 -76.4750 250° West 347 399 21,300 -1,230 Descending Boston Center
Tue 09:36:50 AM 43.4092 -76.6003 250° West 349 402 19,500 -1,672 Descending Boston Center
Tue 09:37:50 AM 43.3758 -76.7244 250° West 359 413 17,900 -1,582 Descending Boston Center
Tue 09:38:21 AM 43.3608 -76.7783 249° West 357 411 17,100 -2,091 Descending Cleveland Center
Tue 09:38:56 AM 43.3372 -76.8656 250° West 352 405 15,600 -2,032 Descending Cleveland Center
Tue 09:39:23 AM 43.3278 -76.9058 252° West 355 409 15,000 -2,239 Descending Cleveland Center
Tue 09:40:03 AM 43.2981 -77.0153 250° West 360 414 13,100 -2,613 Descending Cleveland Center
Tue 09:40:25 AM 43.2867 -77.0586 250° West 356 410 12,300 -2,557 Descending Cleveland Center
Tue 09:41:04 AM 43.2644 -77.1372 249° West 334 384 10,500 -2,419 Descending Cleveland Center
Tue 09:41:27 AM 43.2556 -77.1719 251° West 343 395 9,800 -2,182 Descending Cleveland Center
Tue 09:42:10 AM 43.2211 -77.2508 239° Southwest 291 335 8,100 -1,967 Descending Cleveland Center
Tue 09:42:28 AM 43.2119 -77.2644 227° Southwest 316 364 7,800 -1,967 Descending Cleveland Center
Tue 09:43:11 AM 43.1686 -77.3242 225° Southwest 262 302 6,100 -2,129 Descending Cleveland Center
Tue 09:43:30 AM 43.1586 -77.3358 220° Southwest 277 319 5,600 -2,557 Descending Cleveland Center
Tue 09:44:12 AM 43.1294 -77.4067 241° Southwest 249 287 3,500 -2,419 Descending Cleveland Center
Tue 09:44:32 AM 43.1294 -77.4206 270° West 255 293 3,100 -1,000 Descending Cleveland Center
Tue 09:45:12 AM 43.1258 -77.4925 266° West 201 231 2,500 -484 Descending Cleveland Center
Tue 09:45:34 AM 43.1272 -77.5175 274° West 221 254 2,600 -393 Climbing Cleveland Center
Tue 09:46:13 AM 43.1258 -77.5533 267° West 141 162 2,100 -581 Descending Cleveland Center
Tue 09:46:36 AM 43.1261 -77.5717 271° West 180 207 2,000 -700 Descending Cleveland Center
Tue 09:47:13 AM 43.1253 -77.6025 268° West 124 143 1,400 -677 Descending Cleveland Center
Tue 09:47:38 AM 43.1244 -77.6183 266° West 149 171 1,300 -764 Descending Cleveland Center
Tue 09:48:08 AM 43.1236 -77.6428 267° West 105 121 700 -689 Descending Cleveland Center
Tue 09:48:39 AM 43.1231 -77.6594 267° West 128 147 600 -194 Descending Cleveland Center

Login

Don't have an account? Register now (free) for customized features, flight alerts, and more!